This is the latest recevied weather packets stored in our database for station/object N0QV. If no packets are shown the sender has not sent any weather packets the latest 10 day(s).
| Time | Temp. | Humidity | Pressure | Rain* | Wind** | Luminosity | Snow |
|---|---|---|---|---|---|---|---|
| 1777602079 | 8.89° C | 53% | 1017 hPa | 0 mm | - | 0 W/m² | - |
| 1777601774 | 8.89° C | 54% | 1017.1 hPa | 0 mm | - | 0 W/m² | - |
| 1777601470 | 8.33° C | 54% | 1017.1 hPa | 0 mm | - | 0 W/m² | - |
| 1777601166 | 8.33° C | 54% | 1017 hPa | 0 mm | - | 0 W/m² | - |
| 1777600864 | 8.33° C | 55% | 1016.8 hPa | 0 mm | - | 0 W/m² | - |
| 1777600558 | 7.78° C | 55% | 1016.6 hPa | 0 mm | - | 0 W/m² | - |
| 1777600255 | 7.78° C | 56% | 1016.6 hPa | 0 mm | - | 0 W/m² | - |
| 1777599950 | 8.33° C | 54% | 1016.4 hPa | 0 mm | - | 0 W/m² | - |
| 1777599648 | 8.89° C | 51% | 1016.6 hPa | 0 mm | - | 0 W/m² | - |
| 1777599344 | 9.44° C | 50% | 1016.6 hPa | 0 mm | - | 0 W/m² | - |
| 1777599041 | 9.44° C | 49% | 1016.5 hPa | 0 mm | - | 0 W/m² | - |
| 1777598738 | 10° C | 48% | 1016.6 hPa | 0 mm | - | 0 W/m² | - |
| 1777598434 | 10° C | 48% | 1016.3 hPa | 0 mm | - | 1 W/m² | - |
| 1777598132 | 10° C | 47% | 1016.8 hPa | 0 mm | - | 1 W/m² | - |
| 1777597827 | 10° C | 47% | 1016.6 hPa | 0 mm | - | 1 W/m² | - |
| 1777597521 | 10° C | 46% | 1016.5 hPa | 0 mm | - | 3 W/m² | - |
| 1777597217 | 10° C | 45% | 1016.8 hPa | 0 mm | - | 6 W/m² | - |
| 1777596912 | 10° C | 46% | 1016.6 hPa | 0 mm | - | 7 W/m² | - |
| 1777596609 | 10° C | 45% | 1016.8 hPa | 0 mm | - | 11 W/m² | - |
| 1777596306 | 10° C | 45% | 1016.5 hPa | 0 mm | - | 10 W/m² | - |
| 1777596004 | 10° C | 45% | 1016.5 hPa | 0 mm | - | 10 W/m² | - |
| 1777595698 | 10.56° C | 45% | 1016.6 hPa | 0 mm | - | 15 W/m² | - |
| 1777595394 | 10.56° C | 45% | 1016.6 hPa | 0 mm | - | 17 W/m² | - |
| 1777595091 | 10.56° C | 44% | 1016.5 hPa | 0 mm | - | 16 W/m² | - |
| 1777594787 | 10.56° C | 44% | 1016.8 hPa | 0 mm | - | 15 W/m² | - |
* Rain latest hour (hover to see other rain measurements)
** Current wind speed in m/s (hover to see current wind gust speed)